STARLINK-31144 (58682 NORAD) Tracking and Keplerian Element Data

This shows tracking and keplerian element data for the satellite.

Feedback or suggestion? Click here.




ElementValue
Catalog58682
NameSTARLINK-31144
Epoch Orbit348
Epoch Day12.91667824
Epoch Year2024
RAAN204.0853
Inclination42.9999
Eccentricity0.0001608
Argument of Perigee275.7666
Mean Anonmoly326.2392
Mean Motion15.74262247
Decay Rate-0.01830254
L11 58682U 23211R 24012.91667824 -.01830254 00000+0 -14096-1 0 9995
L22 58682 42.9999 204.0853 0001608 275.7666 326.2392 15.74262247 3481



Live tracking and technical data element details for STARLINK-31144 (NORAD 58682). STARLINK-31144 can be tracked NOW for your location showing map with azimuth and elevation plus other details from your city location.







IsCatalogInMostPopularTable: catalog: 58682, numindb: 23
Update: records affected: 1



GetName: 58682 STARLINK-31144

Hit Count: updated at: Wed, 17 Apr 2024 03:26:06 GMT